Location: Unspecified
(0.0000°N, 0.0000°E)
Time: 05:17:04
(UTC+00:00)

A-11 Canister half - Pass Details

Date: 25 April 2026
Orbit: 1523 x 1685 km, 47.3° (Epoch: 13 May)

Event Time Altitude Azimuth Distance (km) Brightness Sun altitude
Rises 09:53:34 0° 271° (W) 4,822 11.3 56.4°
Reaches altitude 10° 10:01:02 10° 234° (SW) 3,787 10.9 58.1°
Maximum altitude 10:02:30 10° 225° (SW) 3,746 10.9 58.5°
Drops below altitude 10° 10:03:58 10° 215° (SW) 3,768 10.9 58.8°
Sets 10:11:22 0° 178° (S) 4,710 11.4 60.4°
